Location: Greenwich
(51.4776°N, 0.0104°W)
Time: 01:17:53
(UTC+00:00)

Daily predictions for brighter satellites

Satellite Brightness Start Highest point End
(mag) Time Altitude Azimuth Time Altitude Azimuth Time Altitude Azimuth
H-2A R/B 4.4 00:02:38 10° N 00:06:29 40° WNW 00:08:45 21° SW
Cosmos 2322 Rocket 3.7 00:01:44 10° WSW 00:06:49 34° NW 00:11:55 10° NNE
USA 306 4.1 00:07:12 24° SE 00:07:12 24° SE 00:10:22 10° E
Cosmos 1844 Rocket 4.4 00:03:34 10° WNW 00:07:22 19° W 00:09:35 15° SW
Lacrosse 5 4.0 00:07:00 11° SE 00:07:30 11° ESE 00:08:56 10° ESE
Cosmos 371 Rocket 4.2 00:06:52 26° SSE 00:08:48 36° ESE 00:13:13 10° NE
Cosmos 1461 3.4 00:05:14 10° NW 00:09:10 41° WSW 00:10:09 35° SSW
SL-16 R/B 4.4 00:04:31 10° ESE 00:09:27 25° NE 00:14:22 10° N
Cosmos 2322 3.7 00:07:23 24° SSW 00:10:59 85° WNW 00:16:46 10° NNE
USA 307 4.2 00:11:14 23° SE 00:11:14 23° SE 00:14:21 10° E
Cosmos 2333 Rocket 2.5 00:07:16 19° SW 00:11:24 67° NW 00:17:06 10° NNE
Cosmos 220 Rocket 3.8 00:11:12 36° SSW 00:12:48 77° ESE 00:17:02 10° NNE
ATLAS CENTAUR R/B 3.1 00:09:12 10° WNW 00:12:57 23° WSW 00:13:49 21° SW
Cosmos 1709 Rocket 4.5 00:09:03 10° N 00:15:04 54° ENE 00:19:32 18° SSE
ASTEX 1 3.3 00:10:41 10° N 00:15:37 89° E 00:18:02 31° S
SL-19 R/B 3.8 00:19:09 50° SW 00:19:32 55° WSW 00:22:24 10° NNW
Cosmos 1386 Rocket 4.4 00:14:32 10° N 00:20:36 90° WSW 00:24:14 26° S
NOSS 2-2 (C) 4.2 00:16:39 10° NW 00:21:30 70° SW 00:26:47 17° SSE
USA 267 3.4 00:17:02 19° SSE 00:21:39 51° SW 00:28:01 10° WNW
USA 229 DEB 3.9 00:17:06 10° NW 00:24:21 68° SW 00:30:40 16° SSE
USA 229 3.9 00:17:12 10° NW 00:24:27 69° SW 00:30:48 16° SSE
Cosmos 1674 Rocket 3.5 00:23:08 34° S 00:24:58 82° E 00:29:18 10° NNE
ATLAS 2AS CENTAUR R/B 4.4 00:18:50 10° W 00:25:49 36° NNW 00:32:28 10° NE
S3M 4.1 00:24:09 26° S 00:27:59 75° E 00:34:21 10° NNE
Cosmos 2219 Rocket 2.5 00:26:27 19° SW 00:30:28 62° NW 00:36:03 10° NNE
Cosmos 2221 Rocket 3.8 00:28:33 31° SSW 00:30:33 64° WNW 00:34:58 10° N
Cosmos 1553 Rocket 4.1 00:28:15 25° SSW 00:31:55 72° WNW 00:38:10 10° N
Cosmos 494 Rocket 4.2 00:29:30 10° NNW 00:34:29 53° WSW 00:36:50 29° S
Cosmos 1048 Rocket 4.3 00:30:08 10° NNW 00:35:06 48° WSW 00:37:22 29° SSW
Cosmos 2150 Rocket 4.1 00:32:32 29° S 00:35:07 62° ESE 00:40:13 10° NNE
Meteor 1-16 Rocket 4.4 00:30:07 10° NNW 00:36:03 69° W 00:39:24 26° S
CZ-2D R/B 3.9 00:32:58 10° NE 00:37:03 21° E 00:40:53 11° SE
Cosmos 1707 4.1 00:35:39 20° WSW 00:37:29 30° WNW 00:40:55 10° N
MOZ.5/SAFIR/RUBIN 5/SL-8 4.4 00:34:54 17° SE 00:38:22 53° ENE 00:43:01 10° N
ERS-2 4.0 00:36:20 10° N 00:39:15 23° WNW 00:41:16 15° WSW
Cosmos 1455 Rocket 4.0 00:35:02 10° N 00:39:19 44° ENE 00:42:28 17° SE
Cosmos 1378 Rocket 3.6 00:37:53 32° SSW 00:39:53 76° W 00:44:22 10° N
USA 308 3.6 00:40:45 32° SSE 00:41:31 35° SE 00:45:20 10° ENE
Cosmos 1300 2.7 00:38:28 10° N 00:42:16 75° ENE 00:43:56 32° SSE
Okean 2 4.3 00:42:41 24° SW 00:44:35 39° WNW 00:48:27 10° N
USA 290 2.9 00:43:29 30° WSW 00:44:38 46° WNW 00:47:46 10° NNE
Cosmos 1125 Rocket 3.5 00:43:32 28° SSW 00:46:18 78° ESE 00:51:32 10° NNE
NOSS 0 Rocket 4.0 00:45:01 25° SSW 00:48:48 76° ESE 00:55:04 10° NE
Cosmos 1238 Rocket 3.6 00:47:42 10° NW 00:50:11 24° W 00:50:31 23° WSW
NOSS 3-1 (A) 4.5 00:43:47 10° NW 00:50:47 45° WSW 00:56:19 20° S
CZ-4C R/B 3.6 00:48:21 10° NW 00:54:56 37° WSW 00:59:25 22° SSW
SL-14 R/B 3.2 00:53:24 34° SSW 00:54:59 83° W 00:58:53 10° N
ERBS 3.0 00:55:13 31° SE 00:55:13 31° SE 00:57:56 10° ENE
PSLV R/B 4.4 00:54:46 10° N 00:58:56 44° WNW 01:01:26 22° SW
Cosmos 1975 Rocket 3.7 00:56:40 22° SSE 00:59:10 47° E 01:03:29 10° NNE
Cosmos 2237 Rocket 2.3 00:56:44 26° SSW 01:00:04 71° ESE 01:05:46 10° NNE
Cosmos 1025 Rocket 3.9 01:00:08 20° SSE 01:02:40 41° E 01:06:43 10° NNE
Resurs 1-4 Rocket 3.3 00:58:25 10° NNE 01:03:12 34° E 01:07:01 15° SSE
USA 305 3.0 01:02:25 30° SSW 01:04:09 53° SSE 01:08:14 10° ENE
COSMOS 2428 3.3 00:59:51 16° SW 01:04:16 51° NW 01:09:50 10° NNE
Cosmos 405 Rocket 3.5 01:03:21 26° SW 01:04:59 41° WNW 01:08:37 10° N
Gblst 52 Del rocket 4.2 00:59:46 10° W 01:05:52 89° N 01:11:27 10° E
Cosmos 1745 Rocket 4.5 01:00:06 10° NNW 01:06:02 47° W 01:09:40 22° SSW
SME Rocket 3.4 01:03:28 20° SSE 01:06:22 79° ENE 01:11:57 10° NNW
Cosmos 1437 Rocket 3.7 01:04:26 10° NNW 01:07:46 30° W 01:08:52 26° SW
Cosmos 332 Rocket 3.9 01:08:19 26° S 01:10:57 65° ESE 01:15:42 10° NNE
Cosmos 2360 Rocket 4.3 01:07:22 10° W 01:11:45 22° NW 01:16:07 10° NNE
Cosmos 1943 Rocket 2.3 01:06:51 10° NNW 01:12:34 77° ENE 01:18:15 10° SE
Cosmos 1626 3.8 01:11:57 17° WSW 01:13:42 23° WNW 01:16:41 10° NNW
Lacrosse 5 rocket 3.0 01:14:37 16° SE 01:15:37 17° SE 01:18:15 10° E
ADEOS II 3.8 01:12:36 10° NE 01:16:55 25° E 01:21:14 10° SSE
GP-B 3.1 01:12:31 10° N 01:16:59 77° W 01:19:29 26° SSW
Cosmos 2297 4.0 01:12:35 10° NNW 01:18:21 69° ENE 01:24:04 10° SE
Cosmos 2298 Rocket 4.3 01:15:02 21° SW 01:18:32 62° WNW 01:23:49 10° NNE
Cosmos 1953 3.5 01:15:26 10° NNW 01:18:55 29° W 01:20:22 22° SW
Cosmos 1867 4.2 01:14:21 12° WSW 01:19:15 53° NW 01:24:39 10° NE
Thor Agena Rocket 3.6 01:15:29 10° NNE 01:20:48 79° ESE 01:24:18 22° S
Cosmos 1544 Rocket 3.9 01:21:29 10° N 01:25:54 66° ENE 01:29:31 15° SSE
USA 215 3.7 01:20:55 10° ENE 01:27:23 66° NNW 01:33:52 10° W
Cosmos 2278 Rocket 3.2 01:23:15 10° NW 01:28:06 29° WSW 01:30:39 21° SW
NPP 4.2 01:31:55 10° NNE 01:37:13 52° E 01:41:35 15° S
MOS 1 Rocket 3.7 01:33:38 10° SSE 01:37:48 55° ENE 01:42:04 10° N
EO 1 Delta rocket 4.2 01:33:53 10° N 01:38:27 59° WNW 01:41:51 20° SSW
Cosmos 2369 Rocket 2.9 01:36:06 10° NNW 01:41:38 56° NE 01:47:07 10° SE
USA 306 2.8 01:42:53 16° WSW 01:46:08 82° SSE 01:50:19 10° ENE
SL-16 R/B 2.5 01:44:11 18° S 01:48:20 60° ESE 01:53:57 10° NE
Cosmos 371 Rocket 4.3 01:45:30 15° WSW 01:49:11 38° NW 01:53:44 10° NNE
Lacrosse 5 2.3 01:46:10 20° SSW 01:49:26 49° SE 01:54:21 10° ENE
USA 307 2.8 01:46:57 16° WSW 01:50:11 79° SSE 01:54:24 10° ENE
Meteor 1-28 Rocket 4.0 01:47:11 10° SSE 01:50:49 51° ENE 01:54:26 10° N
SL-16 R/B 2.5 01:46:11 10° SSE 01:52:25 81° WSW 01:58:43 10° NNW
Cosmos 1980 4.2 01:47:57 15° SW 01:52:30 52° NW 01:58:02 10° NNE
Cosmos 2074 Rocket 4.0 01:46:42 10° NNW 01:53:01 82° W 01:59:10 11° S
Meteor 2-10 Rocket 4.5 01:49:23 10° NNW 01:54:29 35° W 01:57:59 17° SW
Cosmos 1269 Rocket 4.4 01:51:35 10° NW 01:56:35 44° WSW 02:00:38 15° S
Cosmos 2333 Rocket 4.4 01:52:42 10° W 01:56:48 20° NNW 02:00:56 10° NNE
Cosmos 304 Rocket 4.4 01:54:13 16° SW 01:57:47 47° WNW 02:02:28 10° NNE
Cosmos 2084 Rocket 3.1 01:56:07 21° SW 01:58:36 81° SE 02:02:25 10° NE
AQUA 4.1 01:56:04 10° NNE 02:00:48 63° ESE 02:04:57 13° S
Cosmos 1455 2.2 02:02:05 10° NNW 02:05:45 61° W 02:08:35 16° S
NOSS 3 (A) 4.4 02:07:27 26° W 02:07:57 34° NW 02:09:42 10° NNE
Cosmos 2184 Rocket 4.1 02:02:52 10° NNW 02:09:05 66° W 02:15:07 10° S
Cosmos 1610 Rocket 4.5 02:05:48 10° N 02:12:00 90° W 02:18:08 10° S
Meteor 1-24 Rocket 3.8 02:07:37 16° SSW 02:12:06 64° WNW 02:17:31 10° N
Cosmos 407 Rocket 4.5 02:07:22 10° NNW 02:12:36 51° ENE 02:17:45 10° SE
Cosmos 2228 3.4 02:08:43 10° N 02:13:05 66° ENE 02:17:24 10° SSE
Cosmos 1271 Rocket 2.6 02:10:00 10° NNW 02:13:50 86° WSW 02:17:41 10° S
COSMOS 2455 3.3 02:08:44 14° S 02:13:52 53° ESE 02:19:43 10° NE
Cosmos 2219 Rocket 4.4 02:11:43 10° WNW 02:15:36 19° NNW 02:19:30 10° NNE
Cosmos 1455 Rocket 4.5 02:13:20 10° NW 02:16:54 24° W 02:19:33 14° SW
CZ-2D R/B 2.2 02:12:14 10° NNE 02:17:37 69° WNW 02:22:12 14° SSW
Iridium 82 4.5 02:16:22 13° S 02:19:29 87° E 02:23:02 10° N
Cosmos 1140 Rocket 4.1 02:15:39 10° NNW 02:20:53 61° ENE 02:26:04 10° SE
USA 308 2.9 02:16:43 10° WSW 02:20:55 81° NNW 02:25:07 10° ENE
MSX 4.4 02:18:56 10° NNE 02:24:38 57° E 02:30:18 10° S
Cosmos 1536 Rocket 3.6 02:25:14 13° SSW 02:29:12 76° W 02:33:36 10° N
SAR-Lupe-2 3.6 02:25:51 10° N 02:29:27 71° WNW 02:32:32 13° SSW
Cosmos 292 Rocket 3.9 02:25:27 12° SSW 02:29:53 73° ESE 02:34:41 10° NNE
ERBS 2.8 02:27:26 10° W 02:30:25 49° NNW 02:33:25 10° NE
Genesis I 3.3 02:34:49 10° NW 02:38:56 88° ENE 02:42:57 10° SE
Cosmos 1025 Rocket 4.5 02:37:00 11° WSW 02:40:25 25° WNW 02:43:59 10° NNW
Cosmos 1943 4.0 02:37:03 10° S 02:42:27 46° ESE 02:47:51 10° NE
Meteor 2-1 Rocket 4.3 02:37:01 10° NNW 02:42:51 86° E 02:48:30 10° SSE
Resurs 1-4 Rocket 2.8 02:38:10 10° N 02:43:08 43° WNW 02:48:05 10° SW
USA 305 3.2 02:39:33 10° W 02:43:43 67° N 02:47:54 10° ENE
DEBRIS 4.0 02:30:25 10° W 02:43:50 69° SSW 02:47:33 10° ESE
Cosmos 2237 Rocket 3.6 02:39:44 10° WSW 02:44:40 29° NW 02:49:38 10° NNE
Helios 1B rocket 4.0 02:42:31 10° NNE 02:46:13 32° E 02:49:53 10° SSE
Nadezhda 1 Rocket 4.1 02:40:03 10° SSW 02:46:22 67° WNW 02:52:38 10° N
Cosmos 1606 Rocket 3.5 02:44:35 10° NNW 02:49:03 82° W 02:53:25 10° S
Cosmos 1328 4.4 02:45:51 10° S 02:49:43 55° E 02:53:39 10° NNE
Lacrosse 5 rocket 1.3 02:50:09 10° SW 02:54:04 81° SSE 02:58:14 10° ENE
Cosmos 1943 Rocket 3.5 02:51:30 10° NW 02:55:43 22° W 02:59:55 10° SSW
IDEFIX/ARIANE 42P 2.7 02:50:47 10° N 02:56:02 68° WNW 03:01:16 10° SSW
ADEOS II 2.4 02:51:48 10° N 02:56:58 58° WNW 03:02:06 10° SW
Gblst 52 Del rocket 4.1 02:51:50 10° WNW 02:57:34 72° SSW 03:03:02 10° ESE
Cosmos 2263 4.3 02:57:24 10° NW 03:02:58 58° WSW 03:08:33 10° S
Cosmos 1703 3.7 03:00:18 10° SSW 03:04:07 48° WNW 03:07:56 10° N
COSMOS 2441 4.4 03:00:20 10° NNE 03:05:15 85° WNW 03:10:05 10° SSW
Helios 1A 3.9 03:02:49 10° SSW 03:06:33 30° W 03:10:19 10° NNW
EO 1 Del DPAF 3.7 03:03:13 10° N 03:06:34 42° WNW 03:09:53 10° SW
IRS-1D 3.7 03:02:46 10° NNE 03:08:09 85° WNW 03:13:26 10° SSW
USA 215 4.0 03:03:40 10° E 03:10:01 56° N 03:16:24 10° WNW
Cosmos 2366 rocket 4.1 03:03:50 10° N 03:10:02 89° W 03:16:14 10° S
BREEZE-M DEB (TANK) 3.4 03:01:38 10° W 03:10:23 73° S 03:13:24 10° E
Cosmos 2251 Rocket 4.1 03:05:59 10° NW 03:10:49 38° WSW 03:15:39 10° S
Cosmos 2341 Rocket 4.2 03:07:19 10° NNW 03:13:38 63° W 03:19:55 10° S
